Home   Weather   Taipei   Past weeks

Flag for Taiwan Past Weather in Taipei, Taiwan — Yesterday and Last 2 Weeks

Now
79 °F

Passing clouds.


Feels Like: 80 °F
Forecast: 78 / 90 °F
Wind: 8 mph from East

Location: Sungshan / Taipei

Current Time: Aug 30, 2016 at 9:19:57 PM

Latest Report: Aug 30, 2016 at 8:30 PM


Visibility: N/A

Pressure: 29.74 "Hg

Humidity: 54%

Dew Point: 61 °F

Location of TaipeiLocation

Past Weather in Taipei — Graph

°F

Taipei Temperature Yesterday

Maximum temperature yesterday: 86 °F (at 10:30 AM)
Minimum temperature yesterday: 77 °F (at 2:00 AM)
Average temperature yesterday: 82 °F

High & Low Weather Summary for the Past Weeks

 TemperatureHumidityPressure
High97 °F (Aug 25, 12:30 PM)84% (Aug 27, 2:30 PM)29.80 "Hg (Aug 27, 2:30 PM)
Low75 °F (Aug 30, 1:00 AM)31% (Aug 30, 11:30 AM)29.53 "Hg (Aug 16, 1:00 AM)
Average86 °F62%29.65 "Hg
* Reported Aug 15 8:00 PM — Aug 30 8:00 PM, Taipei, Weather by CustomWeather, © 2016

Note: Actual official high and low records may vary slightly from our data, if they occured in-between our weather recording intervals... More about our weather records

Advertising

Taipei Weather History for the Previous 24 Hours

Scroll right to see more
 ConditionsComfort  
Time TempWeatherWind HumidityBarometerVisibility
8:00 PM
Tue, Aug 30
79 °FPassing clouds.7 mph58%29.71 "HgN/A
7:30 PM81 °FPassing clouds.8 mph51%29.71 "HgN/A
7:00 PM82 °FPassing clouds.8 mph48%29.71 "HgN/A
6:30 PM82 °FPassing clouds.9 mph48%29.71 "HgN/A
6:00 PM84 °FPartly sunny.9 mph43%29.68 "HgN/A
5:30 PM86 °FPartly sunny.8 mph38%29.68 "HgN/A
5:00 PM86 °FPartly sunny.10 mph35%29.68 "HgN/A
4:30 PM86 °FPartly sunny.10 mph38%29.68 "HgN/A
4:00 PM86 °FPartly sunny.12 mph43%29.68 "HgN/A
3:30 PM88 °FPartly sunny.12 mph35%29.68 "HgN/A
3:00 PM90 °FScattered clouds.10 mph33%29.68 "HgN/A
2:30 PM88 °FScattered clouds.10 mph35%29.68 "HgN/A
2:00 PM88 °FPartly sunny.10 mph33%29.68 "HgN/A
1:30 PM88 °FScattered clouds.10 mph33%29.71 "HgN/A
1:00 PM90 °FBroken clouds.8 mph33%29.71 "HgN/A
12:30 PM88 °FScattered clouds.9 mph38%29.71 "HgN/A
12:00 PM88 °FScattered clouds.9 mph35%29.74 "HgN/A
11:30 AM88 °FBroken clouds.10 mph31%29.74 "HgN/A
11:00 AM88 °FBroken clouds.9 mph33%29.77 "HgN/A
10:30 AM88 °FPartly sunny.10 mph35%29.77 "HgN/A
10:00 AM86 °FBroken clouds.12 mph46%29.77 "HgN/A
9:30 AM86 °FBroken clouds.12 mph46%29.77 "HgN/A
9:00 AM84 °FBroken clouds.10 mph51%29.77 "HgN/A
8:30 AM84 °FPartly sunny.9 mph55%29.77 "HgN/A
8:00 AM81 °FPartly sunny.9 mph58%29.77 "HgN/A
7:30 AM81 °FPartly sunny.7 mph58%29.77 "HgN/A
7:00 AM79 °FPartly sunny.7 mph61%29.77 "HgN/A
6:30 AM77 °FBroken clouds.7 mph65%29.77 "HgN/A
6:00 AM75 °FBroken clouds.7 mph69%29.74 "HgN/A
5:00 AM75 °FPassing clouds.8 mph69%29.74 "HgN/A
4:00 AM75 °FPassing clouds.9 mph69%29.74 "HgN/A
3:00 AM77 °FPassing clouds.7 mph65%29.74 "HgN/A
2:00 AM77 °FPassing clouds.8 mph65%29.74 "HgN/A
1:00 AM75 °FPassing clouds.8 mph69%29.77 "HgN/A
12:00 AM77 °FPassing clouds.9 mph61%29.77 "HgN/A
11:30 PM
Mon, Aug 29
77 °FPassing clouds.9 mph61%29.80 "HgN/A
11:00 PM77 °FPassing clouds.9 mph61%29.80 "HgN/A
10:30 PM79 °FPassing clouds.7 mph58%29.80 "HgN/A
10:00 PM79 °FPassing clouds.8 mph58%29.80 "HgN/A
9:30 PM79 °FPartly cloudy.9 mph58%29.80 "HgN/A
9:00 PM79 °FPassing clouds.9 mph58%29.80 "HgN/A
Weather by CustomWeather, © 2016

See weather overviewHow to use our weather pages